Overview Statistics Trail Chart Weather Telemetry Raw packets
 

This is the latest recevied weather packets stored in our database for station/object WA1TYB-13. If no packets are shown the sender has not sent any weather packets the latest 10 day(s).

<< 22 23 24 25 26 27 28 >>
Time Temp. Humidity Pressure Rain* Wind** Luminosity Snow
1788461489 22.78° C 18% 1011.3 hPa 0 mm - 675 W/m² -
1788461186 22.78° C 17% 1011.5 hPa 0 mm - 252 W/m² -
1788460882 22.22° C 22% 1011.6 hPa 0 mm - 568 W/m² -
1788460580 21.11° C 28% 1012 hPa 0 mm - 638 W/m² -
1788460275 21.11° C 25% 1011.6 hPa 0 mm - 342 W/m² -
1788459974 21.11° C 23% 1012 hPa 0 mm - 215 W/m² -
1788459671 21.67° C 24% 1012.2 hPa 0 mm - 272 W/m² -
1788459390 21.67° C 23% 1012.1 hPa 0 mm - 707 W/m² -
1788459063 21.11° C 25% 1012 hPa 0 mm - 187 W/m² -
1788458758 21.67° C 24% 1012.2 hPa 0 mm - 678 W/m² -
1788458453 20.56° C 25% 1012.3 hPa 0 mm - 304 W/m² -
1788458152 20.56° C 26% 1012.4 hPa 0 mm - 167 W/m² -
1788457858 20.56° C 27% 1012.3 hPa 0 mm - 325 W/m² -
1788457547 21.67° C 28% 1012.2 hPa 0 mm - 206 W/m² -
1788457241 21.67° C 21% 1012.4 hPa 0 mm - 325 W/m² -
1788456936 21.11° C 29% 1012.4 hPa 0 mm - 749 W/m² -
1788456633 20.56° C 27% 1012.5 hPa 0 mm - 406 W/m² -
1788456327 21.67° C 22% 1012.5 hPa 0 mm - 373 W/m² -
1788456023 21.67° C 23% 1012.4 hPa 0 mm - 618 W/m² -
1788455717 20.56° C 23% 1012.4 hPa 0 mm - 614 W/m² -
1788455413 20.56° C 25% 1012.7 hPa 0 mm - 551 W/m² -
1788455112 20.56° C 26% 1012.5 hPa 0 mm - 550 W/m² -
1788454807 20.56° C 29% 1012.4 hPa 0 mm - 534 W/m² -
1788454505 19.44° C 29% 1012.5 hPa 0 mm - 516 W/m² -
1788454201 19.44° C 36% 1012.2 hPa 0 mm - 525 W/m² -

* Rain latest hour (hover to see other rain measurements)
** Current wind speed in m/s (hover to see current wind gust speed)